| time (UTC) | temp F | wind direction | speed MPH | gust MPH | rain 1hr in | rain 24hr in | rain mn in | humidity % | barometer mb |
| 20260904005006 | 59 | 224 | 0.0 | 2.0 | 0.01 | 0.20 | 0.03 | 93 | 1005.2 |
| 20260904004006 | 59 | 244 | 0.0 | 3.0 | 0.01 | 0.20 | 0.03 | 93 | 1005.5 |
| 20260904003008 | 59 | 278 | 0.0 | 6.0 | 0.02 | 0.20 | 0.03 | 92 | 1005.6 |
| 20260904002006 | 59 | 274 | 1.0 | 12.0 | 0.03 | 0.20 | 0.03 | 92 | 1005.6 |
| 20260904001005 | 59 | 255 | 0.0 | 3.0 | 0.02 | 0.19 | 0.02 | 92 | 1005.6 |
| 20260904000009 | 59 | 267 | 0.0 | 6.0 | 0.02 | 0.19 | 0.02 | 91 | 1005.6 |
| 20260903235006 | 59 | 247 | 0.0 | 9.0 | 0.02 | 0.19 | 0.02 | 91 | 1005.6 |
| 20260903234006 | 60 | 237 | 0.0 | 5.0 | 0.02 | 0.19 | 0.02 | 91 | 1005.6 |
| 20260903233008 | 61 | 260 | 0.0 | 6.0 | 0.02 | 0.18 | 0.02 | 90 | 1005.8 |
| 20260903232005 | 61 | 239 | 1.0 | 12.0 | 0.00 | 0.17 | 0.00 | 90 | 1005.6 |
| 20260903231006 | 61 | 237 | 1.0 | 16.0 | 0.00 | 0.17 | 0.00 | 90 | 1005.5 |
| 20260903230008 | 62 | 240 | 1.0 | 7.0 | 0.00 | 0.17 | 0.00 | 90 | 1005.5 |
| 20260903225006 | 61 | 242 | 0.0 | 2.0 | 0.00 | 0.17 | 0.00 | 90 | 1005.6 |
| 20260903224006 | 61 | 229 | 1.0 | 9.0 | 0.00 | 0.17 | 0.00 | 90 | 1005.7 |
| 20260903223008 | 61 | 238 | 0.0 | 7.0 | 0.00 | 0.17 | 0.00 | 89 | 1005.7 |
| 20260903222006 | 61 | 297 | 0.0 | 7.0 | 0.00 | 0.17 | 0.00 | 89 | 1005.7 |
| 20260903221006 | 61 | 228 | 1.0 | 10.0 | 0.00 | 0.17 | 0.00 | 89 | 1005.8 |
| 20260903220008 | 61 | 241 | 0.0 | 10.0 | 0.00 | 0.17 | 0.00 | 89 | 1005.7 |
| 20260903215005 | 61 | 238 | 1.0 | 7.0 | 0.00 | 0.17 | 0.17 | 89 | 1005.6 |
| 20260903214006 | 61 | 229 | 0.0 | 5.0 | 0.00 | 0.17 | 0.17 | 89 | 1005.6 |
| 20260903213008 | 62 | 259 | 0.0 | 13.0 | 0.00 | 0.17 | 0.17 | 89 | 1005.6 |
| 20260903212006 | 62 | 251 | 1.0 | 7.0 | 0.00 | 0.17 | 0.17 | 90 | 1005.7 |
| 20260903211006 | 62 | 234 | 0.0 | 7.0 | 0.00 | 0.17 | 0.17 | 90 | 1005.7 |
| 20260903210009 | 62 | 227 | 1.0 | 12.0 | 0.00 | 0.17 | 0.17 | 90 | 1005.7 |
| 20260903205005 | 62 | 244 | 1.0 | 12.0 | 0.00 | 0.17 | 0.17 | 90 | 1005.7 |
| 20260903204006 | 62 | 228 | 0.0 | 5.0 | 0.00 | 0.17 | 0.17 | 89 | 1005.8 |
| 20260903203008 | 62 | 244 | 1.0 | 9.0 | 0.00 | 0.17 | 0.17 | 89 | 1005.9 |
| 20260903202006 | 62 | 235 | 1.0 | 12.0 | 0.00 | 0.17 | 0.17 | 89 | 1005.7 |
| 20260903201005 | 62 | 239 | 1.0 | 9.0 | 0.00 | 0.17 | 0.17 | 89 | 1005.7 |
| 20260903200008 | 63 | 241 | 1.0 | 7.0 | 0.00 | 0.17 | 0.17 | 89 | 1005.6 |
| 20260903195006 | 63 | 243 | 1.0 | 10.0 | 0.00 | 0.17 | 0.17 | 89 | 1005.6 |
| 20260903194005 | 63 | 243 | 0.0 | 9.0 | 0.00 | 0.17 | 0.17 | 89 | 1005.6 |
| 20260903193008 | 63 | 239 | 1.0 | 9.0 | 0.00 | 0.17 | 0.17 | 89 | 1005.6 |
| 20260903192006 | 63 | 256 | 0.0 | 10.0 | 0.00 | 0.17 | 0.17 | 89 | 1005.6 |
| 20260903191006 | 63 | 222 | 1.0 | 9.0 | 0.00 | 0.17 | 0.17 | 89 | 1005.6 |
| 20260903190018 | 64 | 248 | 1.0 | 7.0 | 0.00 | 0.17 | 0.17 | 88 | 1005.4 |
| 20260903185006 | 64 | 227 | 0.0 | 12.0 | 0.00 | 0.17 | 0.17 | 88 | 1005.5 |
| 20260903184005 | 64 | 239 | 1.0 | 9.0 | 0.00 | 0.17 | 0.17 | 89 | 1005.4 |
| 20260903183009 | 64 | 233 | 1.0 | 7.0 | 0.00 | 0.17 | 0.17 | 89 | 1005.2 |
| 20260903182006 | 64 | 233 | 0.0 | 7.0 | 0.00 | 0.17 | 0.17 | 89 | 1005.1 |
| 20260903181006 | 64 | 255 | 1.0 | 9.0 | 0.00 | 0.17 | 0.17 | 89 | 1005.1 |
| 20260903180008 | 64 | 252 | 1.0 | 13.0 | 0.00 | 0.17 | 0.17 | 90 | 1005.1 |
| 20260903175005 | 65 | 231 | 1.0 | 13.0 | 0.00 | 0.17 | 0.17 | 90 | 1004.8 |
| 20260903174005 | 65 | 242 | 2.0 | 20.0 | 0.00 | 0.17 | 0.17 | 90 | 1004.7 |
| 20260903173010 | 65 | 228 | 2.0 | 15.0 | 0.00 | 0.17 | 0.17 | 91 | 1004.8 |
| 20260903172005 | 65 | 227 | 1.0 | 14.0 | 0.00 | 0.17 | 0.17 | 91 | 1004.6 |
| 20260903171005 | 65 | 221 | 1.0 | 16.0 | 0.00 | 0.17 | 0.17 | 91 | 1004.6 |
| 20260903170008 | 65 | 236 | 2.0 | 15.0 | 0.00 | 0.17 | 0.17 | 91 | 1004.5 |
| 20260903165006 | 65 | 231 | 2.0 | 13.0 | 0.00 | 0.17 | 0.17 | 92 | 1004.5 |
| 20260903164005 | 65 | 232 | 1.0 | 10.0 | 0.00 | 0.17 | 0.17 | 92 | 1004.5 |
| 20260903163007 | 65 | 230 | 2.0 | 14.0 | 0.00 | 0.17 | 0.17 | 92 | 1004.5 |
| 20260903162006 | 66 | 232 | 2.0 | 15.0 | 0.00 | 0.17 | 0.17 | 92 | 1004.5 |
| 20260903161005 | 66 | 221 | 4.0 | 16.0 | 0.00 | 0.17 | 0.17 | 93 | 1004.5 |
| 20260903160007 | 66 | 233 | 5.0 | 14.0 | 0.00 | 0.17 | 0.17 | 93 | 1004.6 |
| 20260903155005 | 66 | 233 | 5.0 | 16.0 | 0.00 | 0.17 | 0.17 | 93 | 1004.6 |
| 20260903154006 | 67 | 244 | 2.0 | 12.0 | 0.01 | 0.17 | 0.17 | 93 | 1004.7 |
| 20260903153008 | 66 | 228 | 6.0 | 16.0 | 0.01 | 0.17 | 0.17 | 93 | 1004.7 |
| 20260903152006 | 66 | 207 | 1.0 | 12.0 | 0.01 | 0.17 | 0.17 | 94 | 1004.7 |
| 20260903151006 | 66 | 207 | 1.0 | 12.0 | 0.03 | 0.17 | 0.17 | 94 | 1004.6 |
| 20260903150008 | 66 | 200 | 3.0 | 10.0 | 0.03 | 0.17 | 0.17 | 94 | 1004.6 |
| 20260903145005 | 66 | 199 | 3.0 | 12.0 | 0.03 | 0.17 | 0.17 | 94 | 1004.6 |
| 20260903144006 | 65 | 220 | 2.0 | 12.0 | 0.02 | 0.17 | 0.16 | 94 | 1004.6 |
| 20260903143007 | 64 | 174 | 3.0 | 10.0 | 0.02 | 0.17 | 0.16 | 94 | 1004.7 |
| 20260903142006 | 64 | 194 | 3.0 | 9.0 | 0.02 | 0.17 | 0.16 | 94 | 1005.1 |
| 20260903141005 | 64 | 173 | 2.0 | 6.0 | 0.00 | 0.15 | 0.13 | 94 | 1005.1 |
| 20260903140007 | 64 | 165 | 3.0 | 9.0 | 0.00 | 0.15 | 0.13 | 94 | 1005.2 |
| 20260903135005 | 64 | 176 | 4.0 | 12.0 | 0.00 | 0.16 | 0.13 | 94 | 1005.3 |
| 20260903134005 | 64 | 175 | 2.0 | 12.0 | 0.00 | 0.16 | 0.13 | 94 | 1005.2 |
| 20260903133008 | 63 | 199 | 2.0 | 10.0 | 0.00 | 0.18 | 0.13 | 94 | 1005.5 |
| 20260903132006 | 63 | 172 | 5.0 | 10.0 | 0.00 | 0.18 | 0.13 | 94 | 1005.3 |
| 20260903131005 | 63 | 159 | 3.0 | 7.0 | 0.00 | 0.19 | 0.13 | 94 | 1005.6 |
| 20260903130008 | 63 | 173 | 4.0 | 10.0 | 0.01 | 0.19 | 0.13 | 94 | 1005.6 |
| 20260903125005 | 63 | 200 | 2.0 | 9.0 | 0.01 | 0.19 | 0.13 | 94 | 1005.7 |
| 20260903124005 | 63 | 175 | 3.0 | 9.0 | 0.02 | 0.28 | 0.13 | 94 | 1005.7 |
| 20260903123008 | 63 | 161 | 3.0 | 9.0 | 0.02 | 0.29 | 0.13 | 94 | 1005.7 |
| 20260903122006 | 62 | 171 | 2.0 | 12.0 | 0.02 | 0.29 | 0.13 | 94 | 1006.0 |
| 20260903121005 | 62 | 168 | 4.0 | 12.0 | 0.02 | 0.29 | 0.13 | 94 | 1006.1 |
| 20260903120007 | 62 | 185 | 5.0 | 16.0 | 0.01 | 0.28 | 0.13 | 94 | 1006.1 |
| 20260903115005 | 62 | 170 | 5.0 | 12.0 | 0.01 | 0.28 | 0.13 | 94 | 1006.2 |
| 20260903114006 | 62 | 172 | 2.0 | 10.0 | 0.00 | 0.28 | 0.12 | 94 | 1006.2 |
| 20260903113008 | 62 | 173 | 5.0 | 13.0 | 0.00 | 0.28 | 0.12 | 94 | 1006.4 |
| 20260903112005 | 61 | 169 | 3.0 | 10.0 | 0.00 | 0.28 | 0.12 | 94 | 1006.4 |
| 20260903111006 | 61 | 168 | 6.0 | 12.0 | 0.00 | 0.28 | 0.12 | 94 | 1006.6 |
| 20260903110007 | 61 | 170 | 4.0 | 12.0 | 0.00 | 0.28 | 0.12 | 94 | 1006.7 |
| 20260903105005 | 61 | 170 | 5.0 | 10.0 | 0.01 | 0.28 | 0.12 | 94 | 1006.8 |
| 20260903104005 | 61 | 185 | 5.0 | 12.0 | 0.01 | 0.28 | 0.12 | 94 | 1006.9 |
| 20260903103007 | 61 | 159 | 5.0 | 12.0 | 0.01 | 0.28 | 0.12 | 94 | 1007.2 |
| 20260903102005 | 61 | 154 | 5.0 | 12.0 | 0.01 | 0.28 | 0.12 | 94 | 1007.2 |
| 20260903101005 | 61 | 145 | 5.0 | 12.0 | 0.02 | 0.28 | 0.12 | 94 | 1007.4 |
| 20260903100007 | 61 | 157 | 3.0 | 12.0 | 0.02 | 0.28 | 0.12 | 94 | 1007.6 |
| 20260903095005 | 61 | 142 | 5.0 | 10.0 | 0.02 | 0.27 | 0.11 | 94 | 1007.8 |
| 20260903094006 | 61 | 168 | 5.0 | 12.0 | 0.02 | 0.27 | 0.11 | 94 | 1008.1 |
| 20260903093007 | 61 | 171 | 4.0 | 9.0 | 0.03 | 0.27 | 0.11 | 94 | 1008.2 |
| 20260903092006 | 60 | 168 | 5.0 | 10.0 | 0.04 | 0.27 | 0.11 | 94 | 1008.3 |
| 20260903091005 | 60 | 164 | 3.0 | 10.0 | 0.04 | 0.26 | 0.10 | 94 | 1008.5 |
| 20260903090007 | 60 | 177 | 3.0 | 7.0 | 0.04 | 0.25 | 0.09 | 94 | 1008.6 |
| 20260903085006 | 60 | 181 | 2.0 | 6.0 | 0.03 | 0.24 | 0.09 | 94 | 1008.8 |
| 20260903084005 | 60 | 167 | 5.0 | 12.0 | 0.03 | 0.24 | 0.09 | 94 | 1008.8 |
| 20260903083008 | 60 | 162 | 2.0 | 3.0 | 0.02 | 0.24 | 0.08 | 94 | 1008.8 |
| 20260903082005 | 60 | 166 | 1.0 | 5.0 | 0.02 | 0.23 | 0.07 | 94 | 1008.9 |
| 20260903081006 | 60 | 165 | 2.0 | 7.0 | 0.02 | 0.22 | 0.06 | 94 | 1009.1 |
| 20260903080008 | 60 | 179 | 1.0 | 7.0 | 0.01 | 0.21 | 0.06 | 94 | 1009.2 |
| 20260903075006 | 60 | 176 | 4.0 | 7.0 | 0.02 | 0.21 | 0.06 | 94 | 1009.3 |
| 20260903074006 | 60 | 187 | 2.0 | 3.0 | 0.02 | 0.21 | 0.06 | 94 | 1009.4 |
| 20260903073008 | 60 | 169 | 2.0 | 8.0 | 0.02 | 0.21 | 0.06 | 94 | 1009.4 |
| 20260903072005 | 60 | 179 | 3.0 | 6.0 | 0.01 | 0.20 | 0.05 | 94 | 1009.4 |
| 20260903071005 | 61 | 173 | 2.0 | 7.0 | 0.01 | 0.20 | 0.05 | 94 | 1009.7 |
| 20260903070008 | 61 | 175 | 2.0 | 6.0 | 0.01 | 0.20 | 0.05 | 94 | 1009.7 |
| 20260903065005 | 60 | 172 | 1.0 | 6.0 | 0.01 | 0.20 | 0.04 | 94 | 1009.8 |
| 20260903064006 | 60 | 169 | 2.0 | 5.0 | 0.01 | 0.20 | 0.04 | 94 | 1009.9 |
| 20260903063007 | 60 | 142 | 2.0 | 6.0 | 0.01 | 0.20 | 0.04 | 94 | 1009.9 |
| 20260903062006 | 60 | 169 | 2.0 | 6.0 | 0.01 | 0.20 | 0.04 | 94 | 1010.0 |
| 20260903061005 | 60 | 158 | 2.0 | 7.0 | 0.01 | 0.20 | 0.04 | 94 | 1010.1 |
| 20260903060008 | 60 | 167 | 4.0 | 7.0 | 0.01 | 0.20 | 0.04 | 94 | 1010.1 |
| 20260903055006 | 60 | 176 | 3.0 | 9.0 | 0.00 | 0.19 | 0.03 | 94 | 1010.3 |
| 20260903054008 | 60 | 164 | 4.0 | 7.0 | 0.00 | 0.19 | 0.03 | 94 | 1010.4 |
| 20260903053007 | 60 | 163 | 3.0 | 7.0 | 0.00 | 0.19 | 0.03 | 94 | 1010.4 |
| 20260903052006 | 60 | 172 | 4.0 | 7.0 | 0.00 | 0.19 | 0.03 | 93 | 1010.4 |
| 20260903051005 | 60 | 165 | 3.0 | 6.0 | 0.00 | 0.19 | 0.03 | 93 | 1010.6 |
| 20260903050008 | 60 | 155 | 1.0 | 3.0 | 0.00 | 0.19 | 0.03 | 93 | 1010.8 |
| 20260903045006 | 60 | 177 | 2.0 | 5.0 | 0.00 | 0.19 | 0.03 | 93 | 1010.8 |
| 20260903044005 | 60 | 176 | 1.0 | 5.0 | 0.00 | 0.19 | 0.03 | 93 | 1010.9 |
| 20260903043008 | 60 | 183 | 0.0 | 2.0 | 0.00 | 0.19 | 0.03 | 93 | 1010.9 |
| 20260903042006 | 60 | 184 | 0.0 | 3.0 | 0.00 | 0.19 | 0.03 | 93 | 1011.0 |
| 20260903041007 | 59 | 191 | 1.0 | 5.0 | 0.00 | 0.19 | 0.03 | 93 | 1011.0 |
| 20260903040010 | 59 | 196 | 1.0 | 3.0 | 0.00 | 0.19 | 0.03 | 93 | 1011.2 |
| 20260903035006 | 59 | 162 | 0.0 | 3.0 | 0.00 | 0.19 | 0.03 | 93 | 1011.3 |
| 20260903034006 | 59 | 183 | 0.0 | 2.0 | 0.00 | 0.19 | 0.03 | 93 | 1011.4 |
| 20260903033009 | 59 | 183 | 1.0 | 3.0 | 0.00 | 0.19 | 0.03 | 93 | 1011.4 |
| 20260903032006 | 59 | 183 | 0.0 | 3.0 | 0.00 | 0.19 | 0.03 | 93 | 1011.4 |
| 20260903031006 | 59 | 185 | 0.0 | 0.0 | 0.00 | 0.19 | 0.03 | 93 | 1011.5 |
| 20260903030008 | 59 | 186 | 0.0 | 3.0 | 0.01 | 0.19 | 0.03 | 93 | 1011.5 |
| 20260903025006 | 59 | 189 | 0.0 | 2.0 | 0.01 | 0.19 | 0.03 | 93 | 1011.6 |
| 20260903024006 | 59 | 189 | 0.0 | 3.0 | 0.02 | 0.19 | 0.03 | 93 | 1011.8 |
| 20260903023008 | 59 | 195 | 0.0 | 0.0 | 0.02 | 0.19 | 0.03 | 93 | 1011.8 |
| 20260903022006 | 59 | 219 | 0.0 | 1.0 | 0.02 | 0.19 | 0.03 | 93 | 1011.9 |
| 20260903021006 | 59 | 229 | 0.0 | 1.0 | 0.03 | 0.19 | 0.03 | 93 | 1012.0 |
| 20260903020008 | 59 | 229 | 0.0 | 2.0 | 0.02 | 0.18 | 0.02 | 93 | 1012.1 |
| 20260903015006 | 59 | 229 | 0.0 | 3.0 | 0.02 | 0.18 | 0.02 | 93 | 1012.3 |
| 20260903014006 | 59 | 231 | 1.0 | 5.0 | 0.02 | 0.17 | 0.02 | 93 | 1012.3 |
| 20260903013009 | 59 | 219 | 0.0 | 5.0 | 0.02 | 0.17 | 0.02 | 93 | 1012.5 |
| 20260903012006 | 59 | 181 | 0.0 | 3.0 | 0.02 | 0.17 | 0.02 | 93 | 1012.5 |
| 20260903011005 | 59 | 196 | 0.0 | 3.0 | 0.00 | 0.16 | 0.00 | 93 | 1012.5 |
| 20260903010008 | 59 | 194 | 0.0 | 2.0 | 0.00 | 0.16 | 0.00 | 93 | 1012.5 |